Time,TemperatureF,DewpointF,PressureIn,WindDirection,WindDirectionDegrees,WindSpeedMPH,WindSpeedGustMPH,Humidity,HourlyPrecipIn,Conditions,Clouds,dailyrainin,SoftwareType,DateUTC
2013-01-13 00:02:00,16.0,15.0,-100.00,SSW,192,3.0,6.0,95,-99.99,,,-99.99,,2013-01-13 08:02:00,
2013-01-13 00:11:00,16.0,15.0,-100.00,SSW,192,3.0,6.0,95,-99.99,,,-99.99,,2013-01-13 08:11:00,
2013-01-13 00:53:00,19.0,17.0,-100.00,SSE,159,2.0,3.0,91,-99.99,,,-99.99,,2013-01-13 08:53:00,
2013-01-13 01:02:00,19.0,17.0,-100.00,SSE,159,2.0,3.0,91,-99.99,,,-99.99,,2013-01-13 09:02:00,
2013-01-13 01:12:00,19.0,17.0,-100.00,SSE,159,2.0,3.0,91,-99.99,,,-99.99,,2013-01-13 09:12:00,
2013-01-13 02:02:00,21.0,19.0,-100.00,South,176,7.0,10.0,91,-99.99,,,-99.99,,2013-01-13 10:02:00,
2013-01-13 02:12:00,21.0,19.0,-100.00,South,176,7.0,10.0,91,-99.99,,,-99.99,,2013-01-13 10:12:00,
2013-01-13 03:02:00,20.0,18.0,-100.00,ESE,106,2.0,3.0,91,-99.99,,,-99.99,,2013-01-13 11:02:00,
2013-01-13 03:12:00,20.0,18.0,-100.00,ESE,106,2.0,3.0,91,-99.99,,,-99.99,,2013-01-13 11:12:00,
2013-01-13 04:03:00,20.0,19.0,-100.00,East,94,3.0,3.0,95,-99.99,,,-99.99,,2013-01-13 12:03:00,
2013-01-13 04:12:00,20.0,19.0,-100.00,East,94,3.0,3.0,95,-99.99,,,-99.99,,2013-01-13 12:12:00,
2013-01-13 05:02:00,20.0,19.0,-100.00,South,185,3.0,3.0,95,-99.99,,,-99.99,,2013-01-13 13:02:00,
2013-01-13 05:12:00,20.0,19.0,-100.00,South,185,3.0,3.0,95,-99.99,,,-99.99,,2013-01-13 13:12:00,
2013-01-13 06:02:00,17.0,17.0,-100.00,SSW,211,3.0,3.0,100,-99.99,,,-99.99,,2013-01-13 14:02:00,
2013-01-13 06:12:00,17.0,17.0,-100.00,SSW,211,3.0,3.0,100,-99.99,,,-99.99,,2013-01-13 14:12:00,
2013-01-13 07:03:00,16.0,16.0,-100.00,NE,42,5.0,7.0,100,-99.99,,,-99.99,,2013-01-13 15:03:00,
2013-01-13 07:12:00,16.0,16.0,-100.00,NE,42,5.0,7.0,100,-99.99,,,-99.99,,2013-01-13 15:12:00,
2013-01-13 08:03:00,13.0,13.0,-100.00,South,180,1.0,2.0,100,-99.99,,,-99.99,,2013-01-13 16:03:00,
2013-01-13 08:12:00,13.0,13.0,-100.00,South,180,1.0,2.0,100,-99.99,,,-99.99,,2013-01-13 16:12:00,
2013-01-13 09:03:00,14.0,14.0,-100.00,WSW,239,3.0,5.0,100,-99.99,,,-99.99,,2013-01-13 17:03:00,
2013-01-13 09:12:00,14.0,14.0,-100.00,WSW,239,3.0,5.0,100,-99.99,,,-99.99,,2013-01-13 17:12:00,
2013-01-13 10:03:00,22.0,20.0,-100.00,WNW,292,5.0,7.0,91,-99.99,,,-99.99,,2013-01-13 18:03:00,
2013-01-13 10:12:00,22.0,20.0,-100.00,WNW,292,5.0,7.0,91,-99.99,,,-99.99,,2013-01-13 18:12:00,
2013-01-13 11:02:00,25.0,22.0,-100.00,NW,305,6.0,8.0,88,-99.99,,,-99.99,,2013-01-13 19:02:00,
2013-01-13 11:12:00,25.0,22.0,-100.00,NW,305,6.0,8.0,88,-99.99,,,-99.99,,2013-01-13 19:12:00,
2013-01-13 12:02:00,27.0,19.0,-100.00,North,350,5.0,7.0,71,-99.99,,,-99.99,,2013-01-13 20:02:00,
2013-01-13 12:12:00,27.0,19.0,-100.00,North,350,5.0,7.0,71,-99.99,,,-99.99,,2013-01-13 20:12:00,
2013-01-13 13:03:00,28.0,19.0,-100.00,North,2,3.0,6.0,68,-99.99,,,-99.99,,2013-01-13 21:03:00,
2013-01-13 13:12:00,28.0,19.0,-100.00,North,2,3.0,6.0,68,-99.99,,,-99.99,,2013-01-13 21:12:00,
2013-01-13 14:02:00,28.0,19.0,-100.00,NNW,341,2.0,3.0,68,-99.99,,,-99.99,,2013-01-13 22:02:00,
2013-01-13 14:12:00,28.0,19.0,-100.00,NNW,341,2.0,3.0,68,-99.99,,,-99.99,,2013-01-13 22:12:00,
2013-01-13 15:02:00,29.0,18.0,-100.00,NW,322,2.0,5.0,63,-99.99,,,-99.99,,2013-01-13 23:02:00,
2013-01-13 15:12:00,29.0,18.0,-100.00,NW,322,2.0,5.0,63,-99.99,,,-99.99,,2013-01-13 23:12:00,
2013-01-13 16:02:00,30.0,17.0,-100.00,WNW,290,2.0,3.0,57,-99.99,,,-99.99,,2013-01-14 00:02:00,
2013-01-13 16:12:00,30.0,17.0,-100.00,WNW,290,2.0,3.0,57,-99.99,,,-99.99,,2013-01-14 00:12:00,
2013-01-13 17:02:00,28.0,17.0,-100.00,East,84,2.0,3.0,62,-99.99,,,-99.99,,2013-01-14 01:02:00,
2013-01-13 17:12:00,28.0,17.0,-100.00,East,84,2.0,3.0,62,-99.99,,,-99.99,,2013-01-14 01:12:00,
2013-01-13 18:02:00,24.0,18.0,-100.00,SE,146,3.0,6.0,77,-99.99,,,-99.99,,2013-01-14 02:02:00,
2013-01-13 18:12:00,24.0,18.0,-100.00,SE,146,3.0,6.0,77,-99.99,,,-99.99,,2013-01-14 02:12:00,
2013-01-13 19:02:00,22.0,17.0,-100.00,SSE,148,3.0,7.0,80,-99.99,,,-99.99,,2013-01-14 03:02:00,
2013-01-13 19:12:00,22.0,17.0,-100.00,SSE,148,3.0,7.0,80,-99.99,,,-99.99,,2013-01-14 03:12:00,
2013-01-13 20:02:00,22.0,17.0,-100.00,SSE,157,3.0,6.0,80,-99.99,,,-99.99,,2013-01-14 04:02:00,
2013-01-13 20:12:00,22.0,17.0,-100.00,SSE,157,3.0,6.0,80,-99.99,,,-99.99,,2013-01-14 04:12:00,
2013-01-13 21:03:00,21.0,18.0,-100.00,SE,129,3.0,6.0,87,-99.99,,,-99.99,,2013-01-14 05:03:00,
2013-01-13 21:12:00,21.0,18.0,-100.00,SE,129,3.0,6.0,87,-99.99,,,-99.99,,2013-01-14 05:12:00,
2013-01-13 22:02:00,17.0,17.0,-100.00,SSW,205,3.0,3.0,100,-99.99,,,-99.99,,2013-01-14 06:02:00,
2013-01-13 22:12:00,17.0,17.0,-100.00,SSW,205,3.0,3.0,100,-99.99,,,-99.99,,2013-01-14 06:12:00,
2013-01-13 23:02:00,19.0,18.0,-100.00,NNE,17,5.0,5.0,95,-99.99,,,-99.99,,2013-01-14 07:02:00,
2013-01-13 23:12:00,19.0,18.0,-100.00,NNE,17,5.0,5.0,95,-99.99,,,-99.99,,2013-01-14 07:12:00,